Other Public Products
Issued by NWS Grand Forks, ND

Home | Current Version | Previous Version | Text Only | Print | Product List | Glossary Off
Versions: 1 2 3 4 5 6 7 8 9 10 11 12 13 14 15 16 17 18 19 20 21 22 23 24 25 26 27 28 29 30 31 32 33 34 35 36 37 38 39 40 41 42 43 44 45 46 47 48 49 50

000
FPUS83 KFGF 260110
OPUFGF
PRAIRIE TO PINES WEATHER ROUNDUP
NATIONAL WEATHER SERVICE EASTERN NORTH DAKOTA/GRAND FORKS ND
800 PM CDT SAT APR 25 2015

 **SATELLITE DATA USED TO AUGMENT SKY COVER AT AUTOMATED STATIONS**
 *****  WEATHER ACROSS EASTERN NORTH DAKOTA  *****

CITY           SKY/WX    TMP DP  RH WIND       PRES   REMARKS
GRAND FORKS    MOCLDY    62  38  40 S6        29.91R
GRAND FORKS AF CLEAR     58  38  46 S7        29.91R
GRAND CITY NWS   N/A     59 N/A N/A S6          N/A
BUXTON         NOT AVBL
DEVILS LAKE    CLEAR     52  39  62 SE9       29.90R
FARGO          CLEAR     60  35  39 SE9       29.90R
WAHPETON ARPT  CLEAR     55  36  47 SE7       29.91R
$$

 *****  WEATHER ACROSS CENTRAL AND WESTERN NORTH DAKOTA  *****

CITY           SKY/WX    TMP DP  RH WIND       PRES   REMARKS
JAMESTOWN      CLOUDY    51  41  68 SE8       29.90R
BISMARCK       CLOUDY    49  43  80 SE9       29.87R
MINOT          CLOUDY    53  41  63 SE13      29.84R
MINOT AFB      CLOUDY    54  46  74 SE14      29.83R
GARRISON         N/A     50  42  74 SE14      29.84R
WILLISTON      CLOUDY    54  44  69 S13       29.78R
DICKINSON      CLOUDY    47  44  90 S10       29.80R FOG
HETTINGER      CLOUDY    49  44  83 SE7       29.83R
$$

 *****  OTHER OBSERVATIONS NORTHEAST NORTH DAKOTA  *****

CITY           SKY/WX    TMP DP  RH WIND       PRES   REMARKS
WALHALLA       MOCLDY    59  37  44 S9        29.92R
LANGDON        FAIR      55  37  50 S10G16    29.92R
CAVALIER       MOCLDY    59  39  47 S7        29.92R
GRAFTON        CLOUDY    59  39  47 S6        29.92R
CANDO          CLOUDY    54  39  58 SE12      29.91R
FORT TOTTEN    NOT AVBL
ROLLA          CLOUDY    52  39  62 SE9       29.91R
RUGBY          NOT AVBL
 ***** THE ABOVE OBSERVATIONS ARE NON NWS ARE NOT QUALITY
        CONTROLLED AND MAY MIS-REPORT RAIN FOR SNOW...
$$

 *****  OTHER OBSERVATIONS SOUTHEAST NORTH DAKOTA *****

CITY           SKY/WX    TMP DP  RH WIND       PRES   REMARKS
COOPERSTOWN    NOT AVBL
VALLEY CITY    FAIR      54  41  62 SE8       29.91R
OAKES            N/A     50  43  76 E12       29.90R
GWINNER        CLOUDY    54  43  66 SE7       29.92R
BUFFALO        NOT AVBL
WYNDMERE       NOT AVBL
 ***** THE ABOVE OBSERVATIONS ARE NON NWS ARE NOT QUALITY
       CONTROLLED AND MAY MIS-REPORT RAIN FOR SNOW...
$$

  *****  WEATHER ACROSS NORTHERN MINNESOTA  *****

CITY           SKY/WX    TMP DP  RH WIND       PRES   REMARKS
FLAG ISLAND    CLEAR     54  30  40 E3        29.98R
WARROAD        CLEAR     48  34  57 NE9       29.98R
ROSEAU         CLEAR     54  34  47 E13       29.96R
HALLOCK        CLEAR     61  28  29 E10       29.93R
THF RVR FALLS  CLEAR     57  30  35 E9        29.95R
HALSTAD        NOT AVBL
FOSSTON        CLEAR     57  30  35 E5        29.94R
BAUDETTE       CLEAR     54  29  38 E10       29.98R
WASKISH        CLEAR     55  30  38 CALM      29.96R
CROOKSTON      CLEAR     57  32  38 SE8       29.93R
$$
  *****  WEATHER ACROSS CENTRAL AND WEST MINNESOTA  *****

CITY           SKY/WX    TMP DP  RH WIND       PRES   REMARKS
BEMIDJI        CLEAR     52  30  43 SE5       29.95R
PARK RAPIDS    CLEAR     56  27  32 SE7       29.94R
WADENA         CLEAR     54  28  37 E7        29.93R
DETROIT LAKES  CLEAR     55  28  35 SE8       29.94R
MOORHEAD       CLEAR     59  34  38 SE6       29.92R
FERGUS FALLS   PTCLDY    55  34  44 SE6       29.92R
ELBOW LAKE     FAIR      54  39  57 SE5       29.91R
MORRIS MN      CLEAR     54  39  58 E8        29.90R
STAPLES        CLEAR     54  25  32 E7        29.94R
WHEATON        CLOUDY    52  43  71 E6        29.93R
$$
  *****  WEATHER ELSEWHERE ACROSS MINNESOTA  *****

CITY           SKY/WX    TMP DP  RH WIND       PRES   REMARKS
DULUTH         CLEAR     38  17  42 E10       30.01R
INTRNTL FALLS  CLEAR     52  23  32 E5        29.99R
ELY            CLEAR     46  16  29 SE6       29.99R
CLOQUET        CLEAR     39  10  30 E7        30.00R
BRAINERD       CLEAR     51  28  41 NE10      29.95R
HIBBING        CLEAR     49  11  21 SE9       29.98R
ALEXANDRIA     CLEAR     53  37  54 E9        29.92R
SAINT CLOUD    CLEAR     54  31  41 NE10      29.91R
MINNEAPOLIS    CLEAR     59  20  22 NE9       29.88R
$$

  *****  WEATHER ACROSS SOUTH DAKOTA  *****

CITY           SKY/WX    TMP DP  RH WIND       PRES   REMARKS
SIOUX FALLS    CLOUDY    56  40  55 E13       29.86R
BROOKINGS      CLOUDY    55  43  62 SE12      29.89R
WATERTOWN      CLOUDY    53  42  66 NE9       29.88R
HURON          MOCLDY    56  43  61 E9        29.85R
SISSETON         N/A     54  43  66 S5        29.90R
ABERDEEN       CLOUDY    53  42  66 E8        29.89R
MITCHELL       MOCLDY    57  46  66 E12       29.84R
PIERRE         CLOUDY    57  46  66 E13       29.80R
MOBRIDGE       CLOUDY    56  44  64 E12       29.82R
RAPID CITY     CLOUDY    52  47  83 NE7       29.79R
$$

  *****  SOME WEATHER IN NEARBY STATES *****

CITY           SKY/WX    TMP DP  RH WIND       PRES   REMARKS
GLASGOW MT     CLOUDY    46  41  82 NW13      29.81R
GREAT FALLS MT MOSUNNY   51  25  36 N8        29.83R
CHEYENNE WY    PTCLDY    50  39  66 NE7       29.78R
SCOTTSBLUFF NE CLOUDY    58  39  49 W14G23    29.72S
OMAHA NE       CLOUDY    52  44  74 E12       29.82R
DES MOINES IA  CLOUDY    51  41  68 E14G20    29.81R
DAVENPORT IA   CLOUDY    46  39  76 NE20      29.81R
CHICAGO IL     CLOUDY    42  32  67 N14       29.82R
EAU CLAIRE WI  CLEAR     56  20  24 E5        29.87R
LA CROSSE WI   PTCLDY    55  18  23 E7        29.87R
$$

  *****  SOME NATIONAL WEATHER *****

CITY           SKY/WX    TMP DP  RH WIND       PRES   REMARKS
LA GUARDIA NY  MOCLDY    52  33  48 SE6       29.70S
RALEIGH NC     LGT RAIN  51  50  96 N5        29.65S VSB 1/2
ATLANTA GA     CLOUDY    71  65  81 SW6       29.65S
NEW ORLEANS LA MOCLDY    73  63  70 SW12      29.70S
OKLAHOMA CITY  PTCLDY    75  53  46 S5        29.62S
ALBUQUERQUE NM MOCLDY    67  24  19 SW9G24    29.76F
SALT LAKE CITY LGT RAIN  46  43  89 E6        29.71F
LOS ANGELES CA PTSUNNY   61  54  77 W18       29.86F
BOISE ID       PTSUNNY   58  27  30 NW21G30   29.78R
SEATTLE WA     MOSUNNY   53  35  50 W7        30.03R
$$

*** WEATHER ACROSS MANITOBA...SASKATCHEWAN AND ONTARIO ***
                ***ONTARIO***

CITY           SKY/WX    TMP DP  RH WIND       PRES   REMARKS
GERALDTON      CLEAR     41  19  42 N5        30.03S
THUNDER BAY    CLEAR     43  18  36 NE5       30.04R
SIOUX LOOKOUT  CLEAR     48  12  23 E2        30.04R
TORONTO        PTCLDY    45  27  49 N16       29.83R
BIG TROUT LK   CLEAR     37  28  70 E5        30.16S
PICKLE LAKE    PTCLDY    41  18  38 E7        30.09R
DRYDEN         CLEAR     48  23  37 NE6       30.02R
KENORA         PTCLDY    50  30  46 E8        30.01R
$$
                *** MANITOBA***

CITY           SKY/WX    TMP DP  RH WIND       PRES   REMARKS
BRANDON        MOCLDY    55  41  58 SE8       29.91R
DAUPHIN        MOCLDY    55  37  50 E12       29.94R
ISLAND LAKE    NOT AVBL
PILOT MOUND      N/A     55  37  50 S10         N/A
THE PAS        CLOUDY    34  30  86 NE8       30.09R
THOMPSON       MOCLDY    34  30  86 N6        30.15R
WINNIPEG       MOCLDY    59  30  33 SE13      29.96R
LYNN LAKE      CLEAR     39  19  45 N8        30.15R
CHURCHILL      MOCLDY    27  18  69 SE8       30.27R WCI  18
GILLAM         PTCLDY    45  19  36 E7        30.15R
$$
                ***SASKATCHEWAN***

CITY           SKY/WX    TMP DP  RH WIND       PRES   REMARKS
ESTEVAN        CLOUDY    55  39  54 SE18G25   29.80R
KINDERSLEY     LGT SNOW  32  28  86 NE10      29.93R WCI  24
LLOYDMINSTER   LGT RAIN  36  21  55 NE13G21   30.01R
PRINCE ALBERT  LGT SNOW  32  30  93 NE14G21   30.03R VSB 3/4 WCI  22
REGINA         CLOUDY    50  41  71 SE15G21   29.80R
YORKTON        CLOUDY    52  37  58 E18G24    29.86F



USA.gov is the U.S. government's official web portal to all federal, state and local government web resources and services.